Change the Weather History Date:

Monday, April 29, 2013

  Actual Average Record
Temperature  
Mean Temperature 75 °F -  
Max Temperature 84 °F 81 °F 95 °F (2002)
Min Temperature 68 °F 63 °F 46 °F (2008)
Cooling Degree Days 10    
Growing Degree Days 25 (Base 50)    
Moisture  
Dew Point 65 °F    
Average Humidity 79    
Maximum Humidity 100    
Minimum Humidity 42    
Precipitation  
Precipitation 0.00 in - - ()
Sea Level Pressure  
Sea Level Pressure 29.85 in    
Wind  
Wind Speed 6 mph (SE)    
Max Wind Speed 20 mph    
Max Gust Speed 26 mph    
Visibility 8 miles    
Events Rain , Thunderstorm    
Averages and records for this station are not official NWS values.
T = Trace of Precipitation, MM = Missing Value Source: NWS Daily Summary

Daily Weather History Graph

Daily Weather History Graph

Search for Another Location

Airport or City:

Trip Planner

Search our weather history database for the weather conditions in past years. The results will help you decide how hot, cold, wet, or windy it might be!

Date:

Astronomy

Apr. 29, 2013 Rise Set
Actual Time 6:53 AM CDT 8:09 PM CDT
Civil Twilight 6:28 AM CDT 8:34 PM CDT
Nautical Twilight 5:58 AM CDT 9:04 PM CDT
Astronomical Twilight 5:27 AM CDT 9:35 PM CDT
Moon No Moon Rise 10:23 AM CDT (4/29)
Length of Visible Light 14h 05m
Length of Day
13h 15m
Waning Gibbous, 80% of the Moon is Illuminated
Apr 29
Waning Gibbous
May 2
Last Quarter
May 9
New
May 17
First Quarter
May 24
Full

Hourly Weather History & Observations

Time (CDT) Temp. Heat Index Dew Point Humidity Pressure Visibility Wind Dir Wind Speed Gust Speed Precip Events Conditions
12:53 AM 69.1 °F - 68.0 °F 96% 29.90 in 8.0 mi ESE 6.9 mph - N/A   Clear
1:53 AM 69.1 °F - 68.0 °F 96% 29.88 in 7.0 mi ESE 5.8 mph - N/A   Clear
2:17 AM 68.0 °F - 68.0 °F 100% 29.90 in 6.0 mi SE 4.6 mph - N/A   Mostly Cloudy
2:26 AM 68.0 °F - 68.0 °F 100% 29.90 in 6.0 mi SSE 4.6 mph - N/A   Mostly Cloudy
2:53 AM 69.1 °F - 68.0 °F 96% 29.87 in 6.0 mi SE 5.8 mph - N/A   Overcast
3:53 AM 69.1 °F - 68.0 °F 96% 29.86 in 5.0 mi SSE 4.6 mph - N/A   Overcast
4:53 AM 69.1 °F - 68.0 °F 96% 29.86 in 7.0 mi South 4.6 mph - N/A   Overcast
5:53 AM 69.1 °F - 66.9 °F 93% 29.86 in 6.0 mi South 5.8 mph - N/A   Overcast
6:22 AM 68.0 °F - 66.2 °F 94% 29.89 in 6.0 mi South 4.6 mph - N/A   Overcast
6:53 AM 68.0 °F - 66.9 °F 96% 29.88 in 6.0 mi Calm Calm - N/A   Overcast
7:53 AM 69.1 °F - 66.9 °F 93% 29.88 in 5.0 mi Calm Calm - N/A   Mostly Cloudy
8:38 AM 69.8 °F - 66.2 °F 88% 29.91 in 5.0 mi South 3.5 mph - N/A   Overcast
8:48 AM 69.8 °F - 66.2 °F 88% 29.91 in 5.0 mi South 3.5 mph - N/A   Overcast
8:53 AM 70.0 °F - 66.9 °F 90% 29.89 in 6.0 mi South 3.5 mph - N/A   Overcast
9:17 AM 69.8 °F - 66.2 °F 88% 29.91 in 7.0 mi South 3.5 mph - N/A   Scattered Clouds
9:53 AM 73.0 °F - 64.0 °F 73% 29.88 in 10.0 mi Calm Calm - N/A   Scattered Clouds
10:14 AM 73.4 °F - 62.6 °F 69% 29.91 in 10.0 mi West 3.5 mph - N/A   Mostly Cloudy
10:35 AM 75.2 °F - 62.6 °F 65% 29.91 in 10.0 mi Variable 3.5 mph - N/A   Scattered Clouds
10:53 AM 75.0 °F - 62.1 °F 64% 29.88 in 10.0 mi South 3.5 mph - N/A   Scattered Clouds
11:53 AM 78.1 °F - 63.0 °F 60% 29.87 in 10.0 mi Variable 4.6 mph - N/A   Partly Cloudy
12:53 PM 79.0 °F - 63.0 °F 58% 29.86 in 10.0 mi East 10.4 mph - N/A   Scattered Clouds
1:53 PM 81.0 °F 81.9 °F 62.1 °F 52% 29.83 in 10.0 mi SE 10.4 mph - N/A   Partly Cloudy
1:55 PM 80.6 °F 81.8 °F 62.6 °F 54% 29.86 in 10.0 mi ESE 10.4 mph - N/A   Scattered Clouds
2:53 PM 82.9 °F 82.8 °F 59.0 °F 44% 29.79 in 10.0 mi East 8.1 mph - N/A   Scattered Clouds
3:53 PM 82.0 °F 82.4 °F 60.1 °F 47% 29.76 in 10.0 mi South 10.4 mph - N/A   Scattered Clouds
4:53 PM 82.9 °F 83.2 °F 60.1 °F 46% 29.73 in 10.0 mi SSE 4.6 mph - N/A   Partly Cloudy
5:53 PM 82.9 °F 82.6 °F 57.9 °F 42% 29.73 in 10.0 mi SSE 8.1 mph - N/A   Clear
6:53 PM 73.9 °F - 63.0 °F 68% 29.77 in 10.0 mi SE 16.1 mph 25.3 mph N/A   Overcast
7:30 PM 69.8 °F - 66.2 °F 88% 29.80 in 9.0 mi ESE 17.3 mph 26.5 mph 0.00 in Rain Light Rain
7:53 PM 70.0 °F - 64.9 °F 84% 29.77 in 10.0 mi ESE 19.6 mph - 0.00 in   Overcast
8:17 PM 69.8 °F - 64.4 °F 83% 29.81 in 10.0 mi ESE 12.7 mph 21.9 mph N/A   Mostly Cloudy
8:53 PM 68.0 °F - 64.0 °F 87% 29.82 in 10.0 mi ESE 10.4 mph - N/A   Mostly Cloudy
9:53 PM 68.0 °F - 64.0 °F 87% 29.84 in 10.0 mi East 4.6 mph - N/A   Mostly Cloudy
10:06 PM 68.0 °F - 64.4 °F 88% 29.87 in 10.0 mi ENE 8.1 mph - N/A Thunderstorm Overcast
10:21 PM 69.8 °F - 64.4 °F 83% 29.87 in 10.0 mi NNE 6.9 mph - N/A   Overcast
10:34 PM 69.8 °F - 64.4 °F 83% 29.88 in 10.0 mi NNE 5.8 mph - N/A Thunderstorm Overcast
10:49 PM 69.8 °F - 64.4 °F 83% 29.88 in 10.0 mi North 4.6 mph - N/A   Overcast
10:53 PM 69.1 °F - 64.0 °F 84% 29.85 in 10.0 mi North 4.6 mph - N/A   Overcast
11:53 PM 69.1 °F - 64.9 °F 87% 29.80 in 10.0 mi SSW 8.1 mph - N/A   Mostly Cloudy